When you browse on this site, cookies collect data to enhance your experience and personalize the content and advertising you see.
Visit our Privacy Policy to learn more. By continuing to use the site, you agree to this use of cookies and data.
  • In Schweiz
  • Länderverzeichnis
  • Für 7 Tage
  • Wassertemperatur
  • Satellitenkarten
  • Wetterkarte
  • Widgets
  • user-avatar
    Anmelden

    Stündliche Wetter Homburg

    Heute, 27 Mai, Montag

    Zeit Temperatur Niederschläge Wind Luftdruck Luftfeuchtigkeit
    00:00 +12°C° 0 mm 2 m/S 737 mmHg 96%
    01:00 +12°C° 0 mm 2 m/S 737 mmHg 96%
    02:00 +12°C° 0 mm 2 m/S 737 mmHg 96%
    03:00 +10°C° 0 mm 2 m/S 736 mmHg 97%
    04:00 +12°C° 0 mm 2 m/S 736 mmHg 94%
    05:00 +13°C° 0 mm 2 m/S 736 mmHg 92%
    06:00 +13°C° 0 mm 3 m/S 736 mmHg 90%
    07:00 +14°C° 0 mm 3 m/S 736 mmHg 87%
    08:00 +16°C° 0 mm 3 m/S 736 mmHg 83%
    09:00 +17°C° 0 mm 3 m/S 736 mmHg 80%
    10:00 +15°C° 0.1 mm 4 m/S 736 mmHg 83%
    11:00 +15°C° 0.1 mm 4 m/S 736 mmHg 86%
    12:00 +14°C° 0.1 mm 4 m/S 735 mmHg 89%
    13:00 +16°C° 0 mm 3 m/S 735 mmHg 86%
    14:00 +16°C° 0 mm 3 m/S 735 mmHg 84%
    15:00 +17°C° 0 mm 3 m/S 734 mmHg 82%
    16:00 +17°C° 0 mm 3 m/S 734 mmHg 83%
    17:00 +17°C° 0 mm 2 m/S 734 mmHg 84%
    18:00 +17°C° 0 mm 2 m/S 734 mmHg 85%
    19:00 +16°C° 0 mm 2 m/S 734 mmHg 88%
    20:00 +14°C° 0 mm 2 m/S 735 mmHg 91%
    21:00 +13°C° 0 mm 2 m/S 735 mmHg 94%
    22:00 +13°C° 0 mm 1 m/S 735 mmHg 94%
    23:00 +12°C° 0 mm 1 m/S 734 mmHg 94%

    Morgen, 28 Mai, Dienstag

    Zeit Temperatur Niederschläge Wind Luftdruck Luftfeuchtigkeit
    00:00 +12°C° 0 mm 1 m/S 734 mmHg 94%
    01:00 +12°C° 0.1 mm 1 m/S 734 mmHg 95%
    02:00 +12°C° 0.1 mm 2 m/S 734 mmHg 95%
    03:00 +12°C° 0.1 mm 2 m/S 734 mmHg 95%
    04:00 +11°C° 0.1 mm 3 m/S 734 mmHg 94%
    05:00 +11°C° 0.1 mm 3 m/S 734 mmHg 93%
    06:00 +10°C° 0.1 mm 4 m/S 734 mmHg 92%
    07:00 +11°C° 0 mm 4 m/S 734 mmHg 88%
    08:00 +12°C° 0 mm 4 m/S 735 mmHg 84%
    09:00 +13°C° 0 mm 5 m/S 735 mmHg 80%
    10:00 +14°C° 0.3 mm 4 m/S 735 mmHg 76%
    11:00 +15°C° 0.3 mm 4 m/S 735 mmHg 72%
    12:00 +17°C° 0.3 mm 4 m/S 735 mmHg 68%
    13:00 +17°C° 0.4 mm 4 m/S 735 mmHg 69%
    14:00 +17°C° 0.4 mm 4 m/S 735 mmHg 70%
    15:00 +17°C° 0.4 mm 4 m/S 735 mmHg 71%
    16:00 +15°C° 0.5 mm 4 m/S 735 mmHg 77%
    17:00 +14°C° 0.5 mm 3 m/S 736 mmHg 83%
    18:00 +14°C° 0.5 mm 2 m/S 736 mmHg 88%
    19:00 +13°C° 0.1 mm 2 m/S 736 mmHg 90%
    20:00 +11°C° 0.1 mm 1 m/S 737 mmHg 91%
    21:00 +10°C° 0.1 mm 1 m/S 738 mmHg 92%
    22:00 +9°C° 0 mm 1 m/S 738 mmHg 93%
    23:00 +9°C° 0 mm 1 m/S 738 mmHg 93%

    übermorgen, 29 Mai, Mittwoch

    Zeit Temperatur Niederschläge Wind Luftdruck Luftfeuchtigkeit
    00:00 +8°C° 0 mm 1 m/S 739 mmHg 94%
    01:00 +8°C° 0 mm 1 m/S 739 mmHg 95%
    02:00 +8°C° 0 mm 1 m/S 739 mmHg 95%
    03:00 +7°C° 0 mm 1 m/S 740 mmHg 96%
    04:00 +9°C° 0 mm 1 m/S 740 mmHg 95%
    05:00 +10°C° 0 mm 1 m/S 741 mmHg 93%
    06:00 +10°C° 0 mm 0 m/S 741 mmHg 92%
    07:00 +12°C° 0 mm 1 m/S 741 mmHg 87%
    08:00 +14°C° 0 mm 1 m/S 741 mmHg 81%
    09:00 +15°C° 0 mm 1 m/S 742 mmHg 76%
    10:00 +16°C° 0.2 mm 2 m/S 742 mmHg 74%
    11:00 +16°C° 0.2 mm 2 m/S 742 mmHg 73%
    12:00 +17°C° 0.2 mm 3 m/S 742 mmHg 72%
    13:00 +17°C° 0.1 mm 3 m/S 742 mmHg 71%
    14:00 +17°C° 0.1 mm 4 m/S 741 mmHg 71%
    15:00 +17°C° 0.1 mm 4 m/S 741 mmHg 70%
    16:00 +17°C° 0 mm 4 m/S 741 mmHg 73%
    17:00 +16°C° 0 mm 3 m/S 741 mmHg 76%
    18:00 +16°C° 0 mm 3 m/S 741 mmHg 79%
    19:00 +14°C° 0 mm 3 m/S 742 mmHg 81%
    20:00 +13°C° 0 mm 3 m/S 742 mmHg 83%
    21:00 +12°C° 0 mm 3 m/S 742 mmHg 85%
    22:00 +12°C° 0.1 mm 3 m/S 742 mmHg 87%
    23:00 +12°C° 0.1 mm 3 m/S 742 mmHg 90%

    30 Mai, Donnerstag

    Zeit Temperatur Niederschläge Wind Luftdruck Luftfeuchtigkeit
    00:00 +11°C° 0.1 mm 4 m/S 742 mmHg 93%
    01:00 +12°C° 0.4 mm 4 m/S 742 mmHg 94%
    02:00 +12°C° 0.4 mm 4 m/S 742 mmHg 96%
    03:00 +12°C° 0.4 mm 4 m/S 742 mmHg 97%
    04:00 +12°C° 0.8 mm 4 m/S 742 mmHg 97%
    05:00 +12°C° 0.8 mm 4 m/S 742 mmHg 97%
    06:00 +13°C° 0.8 mm 4 m/S 742 mmHg 97%
    07:00 +13°C° 0.4 mm 4 m/S 743 mmHg 97%
    08:00 +13°C° 0.4 mm 4 m/S 743 mmHg 97%
    09:00 +13°C° 0.4 mm 4 m/S 743 mmHg 97%
    10:00 +14°C° 0.1 mm 4 m/S 744 mmHg 96%
    11:00 +14°C° 0.1 mm 4 m/S 744 mmHg 95%
    12:00 +14°C° 0.1 mm 4 m/S 744 mmHg 94%
    13:00 +15°C° 0 mm 4 m/S 744 mmHg 92%
    14:00 +16°C° 0 mm 3 m/S 744 mmHg 89%
    15:00 +17°C° 0 mm 3 m/S 744 mmHg 87%
    16:00 +17°C° 0.2 mm 3 m/S 744 mmHg 88%
    17:00 +17°C° 0.2 mm 3 m/S 744 mmHg 90%
    18:00 +17°C° 0.2 mm 3 m/S 744 mmHg 92%
    19:00 +16°C° 0 mm 3 m/S 744 mmHg 93%
    20:00 +14°C° 0 mm 3 m/S 744 mmHg 95%
    21:00 +13°C° 0 mm 3 m/S 744 mmHg 97%
    22:00 +13°C° 0 mm 3 m/S 744 mmHg 97%
    23:00 +13°C° 0 mm 3 m/S 744 mmHg 97%

    31 Mai, Freitag

    Zeit Temperatur Niederschläge Wind Luftdruck Luftfeuchtigkeit
    00:00 +13°C° 0 mm 3 m/S 744 mmHg 97%
    01:00 +13°C° 0.1 mm 4 m/S 744 mmHg 97%
    02:00 +13°C° 0.1 mm 4 m/S 744 mmHg 96%
    03:00 +13°C° 0.1 mm 4 m/S 744 mmHg 96%
    04:00 +13°C° 0.1 mm 4 m/S 744 mmHg 96%
    05:00 +13°C° 0.1 mm 4 m/S 744 mmHg 97%
    06:00 +13°C° 0.1 mm 4 m/S 744 mmHg 97%
    07:00 +13°C° 0.2 mm 4 m/S 744 mmHg 96%
    08:00 +14°C° 0.2 mm 4 m/S 745 mmHg 95%
    09:00 +14°C° 0.2 mm 4 m/S 745 mmHg 94%
    10:00 +15°C° 0.1 mm 4 m/S 745 mmHg 87%
    11:00 +18°C° 0.1 mm 4 m/S 745 mmHg 80%
    12:00 +19°C° 0.1 mm 5 m/S 746 mmHg 73%
    13:00 +19°C° 0.4 mm 4 m/S 746 mmHg 74%
    14:00 +19°C° 0.4 mm 4 m/S 746 mmHg 76%
    15:00 +19°C° 0.4 mm 4 m/S 746 mmHg 77%
    16:00 +18°C° 0.1 mm 4 m/S 746 mmHg 77%
    17:00 +17°C° 0.1 mm 3 m/S 746 mmHg 78%
    18:00 +17°C° 0.1 mm 3 m/S 747 mmHg 78%
    19:00 +13°C° 0 mm 3 m/S 747 mmHg 83%
    20:00 +12°C° 0 mm 2 m/S 747 mmHg 87%
    21:00 +9°C° 0 mm 2 m/S 748 mmHg 92%
    22:00 +8°C° 0 mm 2 m/S 748 mmHg 93%
    23:00 +8°C° 0 mm 2 m/S 748 mmHg 94%

    1 Juni, Samstag

    Zeit Temperatur Niederschläge Wind Luftdruck Luftfeuchtigkeit
    00:00 +7°C° 0 mm 2 m/S 749 mmHg 94%
    01:00 +7°C° 0 mm 2 m/S 749 mmHg 95%
    02:00 +6°C° 0 mm 2 m/S 749 mmHg 95%
    03:00 +6°C° 0 mm 2 m/S 749 mmHg 95%
    04:00 +7°C° 0 mm 2 m/S 749 mmHg 92%
    05:00 +9°C° 0 mm 3 m/S 749 mmHg 88%
    06:00 +10°C° 0 mm 3 m/S 749 mmHg 84%
    07:00 +12°C° 0 mm 3 m/S 749 mmHg 77%
    08:00 +13°C° 0 mm 3 m/S 749 mmHg 71%
    09:00 +16°C° 0 mm 3 m/S 749 mmHg 64%
    10:00 +17°C° 0 mm 2 m/S 749 mmHg 59%
    11:00 +18°C° 0 mm 2 m/S 749 mmHg 55%
    12:00 +20°C° 0 mm 2 m/S 749 mmHg 50%
    13:00 +20°C° 0 mm 2 m/S 748 mmHg 50%
    14:00 +20°C° 0 mm 2 m/S 748 mmHg 51%
    15:00 +20°C° 0 mm 2 m/S 748 mmHg 51%
    16:00 +19°C° 0 mm 2 m/S 747 mmHg 57%
    17:00 +18°C° 0 mm 2 m/S 747 mmHg 64%
    18:00 +17°C° 0 mm 2 m/S 747 mmHg 70%
    19:00 +16°C° 0 mm 2 m/S 747 mmHg 70%
    20:00 +14°C° 0 mm 1 m/S 747 mmHg 71%
    21:00 +12°C° 0 mm 1 m/S 747 mmHg 71%
    22:00 +11°C° 0 mm 1 m/S 747 mmHg 73%
    23:00 +11°C° 0 mm 1 m/S 747 mmHg 74%
    Mehr zeigen